F4DOU-5 Weather Reports


Display with metric or nautical units.
time (UTC)temp
F
wind
direction
speed
MPH
gust
MPH
rain 1hr
in
rain 24hr
in
rain mn
in
humidity
%
barometer
mb
20260506145006 66 84 2.0 6.0 0.00 0.21 0.19 63 1009.7
20260506143006 66 37 6.0 12.0 0.00 0.21 0.19 62 1009.9
20260506142006 67 14 5.0 9.0 0.00 0.21 0.19 63 1009.9
20260506141006 67 68 5.0 12.0 0.00 0.21 0.19 63 1010.0
20260506140006 67 107 4.0 12.0 0.00 0.21 0.19 63 1010.1
20260506135006 68 137 3.0 8.0 0.00 0.21 0.19 59 1010.1
20260506134007 69 187 3.0 7.0 0.00 0.21 0.19 59 1010.1
20260506132006 67 142 4.0 10.0 0.00 0.21 0.19 63 1010.2
20260506131006 67 103 1.0 6.0 0.01 0.21 0.19 63 1010.2
20260506130007 66 17 1.0 6.0 0.01 0.21 0.19 65 1010.2
20260506125006 64 262 2.0 6.0 0.01 0.21 0.19 65 1010.2
20260506124006 62 61 2.0 6.0 0.01 0.21 0.19 78 1010.3
20260506123006 61 24 3.0 9.0 0.01 0.21 0.19 82 1010.4
20260506122008 61 5 5.0 12.0 0.01 0.21 0.19 79 1010.5
20260506121006 63 337 5.0 12.0 0.00 0.20 0.18 72 1010.4
20260506120006 65 323 9.0 15.0 0.00 0.20 0.18 68 1010.4
20260506115006 68 244 2.0 6.0 0.00 0.20 0.18 57 1010.2
20260506114005 66 242 5.0 9.0 0.00 0.20 0.18 61 1010.2
20260506113006 66 139 3.0 7.0 0.00 0.20 0.18 62 1010.2
20260506112006 67 117 3.0 8.0 0.00 0.20 0.18 60 1010.3
20260506110005 67 332 1.0 5.0 0.00 0.20 0.18 60 1010.5
20260506104006 66 74 3.0 7.0 0.00 0.20 0.18 62 1010.8
20260506103006 65 92 2.0 5.0 0.00 0.20 0.18 64 1010.9
20260506102006 65 141 2.0 5.0 0.00 0.20 0.18 61 1011.0
20260506101005 65 170 1.0 3.0 0.00 0.20 0.18 64 1011.0
20260506100005 64 222 1.0 3.0 0.00 0.20 0.18 65 1011.0
20260506095006 63 10 1.0 5.0 0.00 0.20 0.18 67 1011.0
20260506094005 64 326 2.0 5.0 0.00 0.20 0.18 66 1011.0
20260506092005 63 334 0.0 2.0 0.00 0.20 0.18 69 1010.9
20260506091005 63 331 1.0 3.0 0.00 0.20 0.18 68 1010.8
20260506085006 63 139 2.0 6.0 0.00 0.20 0.18 68 1010.8
20260506084005 64 160 2.0 5.0 0.00 0.20 0.18 68 1010.7
20260506083005 64 247 2.0 5.0 0.00 0.20 0.18 70 1010.6
20260506082005 62 252 1.0 6.0 0.00 0.20 0.18 74 1010.6
20260506081006 62 218 2.0 6.0 0.00 0.20 0.18 74 1010.6
20260506073005 59 163 1.0 5.0 0.00 0.20 0.18 84 1010.5
20260506071005 57 192 2.0 7.0 0.00 0.20 0.18 88 1010.3
20260506062005 54 191 1.0 3.0 0.00 0.20 0.18 96 1009.8
20260506061006 53 197 1.0 3.0 0.00 0.20 0.18 95 1009.7
20260506051005 51 230 0.0 2.0 0.00 0.35 0.18 95 1009.3
20260506045005 50 230 0.0 1.0 0.00 0.39 0.18 95 1009.1
20260506044005 51 230 0.0 1.0 0.00 0.39 0.18 95 1009.1
20260506043005 51 232 0.0 2.0 0.00 0.39 0.18 95 1009.0
20260506041005 51 182 0.0 1.0 0.00 0.39 0.18 94 1009.2
20260506035005 51 180 0.0 3.0 0.00 0.39 0.18 94 1009.2
20260506033005 52 219 0.0 3.0 0.00 0.39 0.18 94 1009.0
20260506032005 52 306 1.0 3.0 0.00 0.39 0.18 93 1008.8
20260506030005 52 337 2.0 5.0 0.00 0.39 0.18 94 1008.4
20260506025005 52 343 1.0 3.0 0.00 0.39 0.18 94 1008.4
20260506023005 53 267 2.0 6.0 0.00 0.39 0.18 94 1008.5
20260506022005 53 324 2.0 9.0 0.00 0.40 0.18 94 1008.3
20260506015005 53 269 2.0 12.0 0.00 0.41 0.18 94 1008.5
20260506014005 53 268 6.0 12.0 0.01 0.41 0.18 94 1008.6
20260506013005 53 264 3.0 10.0 0.01 0.41 0.18 93 1008.7
20260506010005 53 30 3.0 5.0 0.01 0.42 0.18 93 1008.2
20260506004004 54 348 2.0 7.0 0.01 0.41 0.17 93 1008.7
20260506003005 54 342 5.0 12.0 0.01 0.42 0.17 94 1008.9
20260506002005 54 329 5.0 10.0 0.02 0.43 0.17 94 1009.0
20260506001005 55 301 2.0 5.0 0.03 0.46 0.17 94 1009.3
20260505235005 55 293 3.0 8.0 0.05 0.50 0.17 94 1009.6
20260505234005 55 262 1.0 3.0 0.08 0.52 0.17 93 1009.8
20260505232005 55 293 3.0 8.0 0.13 0.53 0.16 93 1010.0
20260505231005 55 257 3.0 12.0 0.14 0.51 0.14 93 1010.2
20260505230005 56 255 5.0 12.0 0.13 0.51 0.13 92 1010.1
20260505224005 57 319 0.0 2.0 0.10 0.51 0.09 92 1010.3
20260505223005 58 319 1.0 2.0 0.08 0.49 0.06 92 1010.3
20260505222005 58 319 0.0 2.0 0.05 0.50 0.02 91 1010.3
20260505221008 58 319 0.0 1.0 0.02 0.50 0.00 91 1010.3
20260505214005 59 319 0.0 3.0 0.01 0.57 0.50 88 1010.5
20260505212005 59 205 0.0 2.0 0.00 0.57 0.50 88 1010.8
20260505205005 60 210 0.0 3.0 0.00 0.67 0.50 86 1011.0
20260505204005 60 208 1.0 3.0 0.00 0.72 0.50 86 1011.1
20260505203005 60 186 0.0 2.0 0.00 0.81 0.50 86 1011.1
20260505202005 60 258 0.0 1.0 0.00 0.83 0.50 85 1011.0
20260505201005 60 262 0.0 2.0 0.00 0.88 0.50 84 1010.9
20260505195005 60 215 1.0 5.0 0.00 0.98 0.50 83 1010.9
20260505193005 61 201 1.0 3.0 0.00 1.12 0.50 83 1010.6
20260505192004 61 187 0.0 3.0 0.00 1.15 0.50 82 1010.6
20260505190005 61 224 1.0 3.0 0.00 1.20 0.50 81 1010.6
20260505185005 61 236 0.0 3.0 0.00 1.21 0.50 80 1010.5
20260505184005 62 219 1.0 5.0 0.00 1.21 0.50 79 1010.3
20260505183005 62 210 3.0 6.0 0.00 1.21 0.50 79 1010.3
20260505181005 62 211 2.0 8.0 0.00 1.21 0.50 77 1010.3
20260505180005 63 217 5.0 10.0 0.00 1.21 0.50 76 1010.2
20260505175005 63 207 5.0 12.0 0.00 1.22 0.50 75 1010.1
20260505174005 63 211 6.0 12.0 0.00 1.22 0.50 74 1010.1
20260505173005 64 210 6.0 12.0 0.00 1.24 0.50 74 1010.0
20260505172006 64 209 6.0 14.0 0.00 1.24 0.50 72 1009.9
20260505171005 64 204 7.0 12.0 0.00 1.25 0.50 70 1009.9
20260505170005 65 207 6.0 15.0 0.00 1.25 0.50 70 1009.9
20260505165005 65 199 7.0 18.0 0.00 1.25 0.50 69 1010.0
20260505164008 65 187 10.0 20.0 0.00 1.25 0.50 69 1010.0
20260505162005 66 191 7.0 17.0 0.00 1.26 0.50 66 1010.1
20260505161005 66 210 7.0 23.0 0.00 1.26 0.50 66 1010.1
20260505151005 69 195 9.0 17.0 0.00 1.27 0.50 59 1009.8